| time (UTC) | temp F | wind direction | speed knots | gust knots | rain 1hr in | rain 24hr in | rain mn in | humidity % | barometer mb |
| 20260502231604 | 70 | 154 | 0.0 | 0.0 | 0.03 | 0.72 | 0.72 | 100 | 1014.5 |
| 20260502231457 | 70 | 180 | 0.9 | 3.5 | 0.04 | 0.72 | 0.72 | 100 | 1014.2 |
| 20260502231403 | 70 | 154 | 0.0 | 0.0 | 0.04 | 0.72 | 0.72 | 100 | 1014.2 |
| 20260502231104 | 70 | 154 | 0.0 | 0.0 | 0.04 | 0.72 | 0.72 | 100 | 1014.2 |
| 20260502230604 | 70 | 154 | 0.0 | 3.5 | 0.04 | 0.72 | 0.72 | 100 | 1014.0 |
| 20260502230104 | 70 | 180 | 0.9 | 3.5 | 0.04 | 0.72 | 0.72 | 100 | 1014.2 |
| 20260502225604 | 70 | 187 | 2.6 | 3.5 | 0.05 | 0.72 | 0.72 | 100 | 1014.3 |
| 20260502225104 | 71 | 144 | 0.9 | 4.3 | 0.05 | 0.72 | 0.72 | 100 | 1014.2 |
| 20260502224604 | 71 | 195 | 1.7 | 5.2 | 0.05 | 0.72 | 0.72 | 100 | 1014.6 |
| 20260502224104 | 71 | 232 | 1.7 | 1.7 | 0.04 | 0.71 | 0.71 | 100 | 1014.1 |
| 20260502223627 | 71 | 180 | 0.0 | 0.0 | 0.03 | 0.70 | 0.70 | 100 | 1013.8 |
| 20260502223604 | 71 | 130 | 0.0 | 2.6 | 0.04 | 0.71 | 0.71 | 100 | 1014.0 |
| 20260502223104 | 71 | 180 | 0.0 | 0.0 | 0.03 | 0.70 | 0.70 | 100 | 1014.1 |
| 20260502222604 | 71 | 180 | 0.0 | 0.0 | 0.03 | 0.70 | 0.70 | 100 | 1013.8 |
| 20260502222232 | 71 | 180 | 0.0 | 0.0 | 0.07 | 0.70 | 0.70 | 100 | 1014.2 |
| 20260502222104 | 71 | 180 | 0.0 | 0.0 | 0.07 | 0.70 | 0.70 | 100 | 1014.2 |
| 20260502221604 | 71 | 180 | 0.0 | 0.0 | 0.07 | 0.69 | 0.69 | 100 | 1014.3 |
| 20260502221104 | 71 | 180 | 0.0 | 0.0 | 0.08 | 0.68 | 0.68 | 100 | 1013.8 |
| 20260502220604 | 71 | 180 | 0.0 | 0.0 | 0.09 | 0.68 | 0.68 | 100 | 1014.0 |
| 20260502220104 | 70 | 180 | 0.0 | 0.0 | 0.12 | 0.68 | 0.68 | 100 | 1014.2 |
| 20260502215604 | 71 | 180 | 0.0 | 2.6 | 0.15 | 0.67 | 0.67 | 100 | 1014.0 |
| 20260502215104 | 70 | 175 | 2.6 | 4.3 | 0.36 | 0.67 | 0.67 | 100 | 1014.2 |
| 20260502214715 | 70 | 156 | 1.7 | 4.3 | 0.61 | 0.67 | 0.67 | 100 | 1014.1 |
| 20260502214713 | 71 | 84 | 3.5 | 4.3 | 0.67 | 0.67 | 0.67 | 100 | 1013.7 |
| 20260502214604 | 70 | 156 | 1.7 | 4.3 | 0.61 | 0.67 | 0.67 | 100 | 1014.1 |
| 20260502214501 | 71 | 84 | 3.5 | 4.3 | 0.67 | 0.67 | 0.67 | 100 | 1013.7 |
| 20260502214104 | 71 | 84 | 3.5 | 4.3 | 0.67 | 0.67 | 0.67 | 100 | 1013.7 |
| 20260502213629 | 70 | 172 | 0.0 | 0.0 | 0.67 | 0.67 | 0.67 | 100 | 1014.3 |
| 20260502213604 | 70 | 172 | 0.0 | 0.0 | 0.67 | 0.67 | 0.67 | 100 | 1014.1 |
| 20260502213104 | 70 | 172 | 0.0 | 0.0 | 0.67 | 0.67 | 0.67 | 100 | 1014.3 |
| 20260502212604 | 70 | 172 | 0.0 | 0.0 | 0.67 | 0.67 | 0.67 | 100 | 1014.4 |
| 20260502212104 | 70 | 172 | 0.0 | 0.0 | 0.63 | 0.63 | 0.63 | 100 | 1014.3 |
| 20260502211604 | 70 | 172 | 0.0 | 3.5 | 0.62 | 0.62 | 0.62 | 100 | 1014.6 |
| 20260502211316 | 70 | 229 | 3.5 | 3.5 | 0.60 | 0.60 | 0.60 | 100 | 1014.7 |
| 20260502211104 | 70 | 229 | 3.5 | 3.5 | 0.60 | 0.60 | 0.60 | 100 | 1014.7 |
| 20260502210604 | 70 | 187 | 0.0 | 2.6 | 0.59 | 0.59 | 0.59 | 100 | 1014.2 |
| 20260502210104 | 70 | 206 | 0.9 | 1.7 | 0.56 | 0.56 | 0.56 | 100 | 1014.0 |
| 20260502205604 | 70 | 174 | 0.0 | 6.1 | 0.52 | 0.52 | 0.52 | 100 | 1013.8 |
| 20260502205104 | 72 | 291 | 3.5 | 19.1 | 0.30 | 0.30 | 0.30 | 100 | 1014.2 |
| 20260502204604 | 76 | 264 | 9.6 | 17.4 | 0.06 | 0.06 | 0.06 | 100 | 1013.9 |
| 20260502204104 | 80 | 336 | 8.7 | 18.2 | 0.00 | 0.00 | 0.00 | 100 | 1013.7 |
| 20260502203604 | 82 | 12 | 2.6 | 4.3 | 0.00 | 0.00 | 0.00 | 100 | 1013.3 |
| 20260502203104 | 82 | 251 | 3.5 | 5.2 | 0.00 | 0.00 | 0.00 | 100 | 1013.2 |
| 20260502202604 | 83 | 243 | 1.7 | 6.1 | 0.00 | 0.00 | 0.00 | 100 | 1013.3 |
| 20260502202223 | 83 | 293 | 0.9 | 7.8 | 0.00 | 0.00 | 0.00 | 100 | 1013.5 |
| 20260502202104 | 83 | 282 | 3.5 | 8.7 | 0.00 | 0.00 | 0.00 | 100 | 1013.5 |
| 20260502201604 | 83 | 293 | 0.9 | 7.8 | 0.00 | 0.00 | 0.00 | 100 | 1013.5 |
| 20260502201104 | 83 | 250 | 5.2 | 9.6 | 0.00 | 0.00 | 0.00 | 100 | 1013.5 |
| 20260502200604 | 83 | 277 | 7.0 | 8.7 | 0.00 | 0.00 | 0.00 | 100 | 1013.3 |
| 20260502200104 | 84 | 253 | 7.8 | 7.8 | 0.00 | 0.00 | 0.00 | 100 | 1013.4 |
| 20260502195604 | 84 | 260 | 5.2 | 8.7 | 0.00 | 0.00 | 0.00 | 100 | 1013.3 |
| 20260502195104 | 85 | 248 | 6.1 | 9.6 | 0.00 | 0.00 | 0.00 | 100 | 1013.4 |
| 20260502194604 | 84 | 247 | 4.3 | 10.4 | 0.00 | 0.00 | 0.00 | 100 | 1013.6 |
| 20260502194105 | 83 | 272 | 6.1 | 9.6 | 0.00 | 0.00 | 0.00 | 100 | 1013.7 |
| 20260502193741 | 84 | 253 | 5.2 | 8.7 | 0.00 | 0.00 | 0.00 | 100 | 1013.8 |
| 20260502193605 | 84 | 253 | 5.2 | 8.7 | 0.00 | 0.00 | 0.00 | 100 | 1013.8 |
| 20260502193105 | 84 | 285 | 6.1 | 8.7 | 0.00 | 0.00 | 0.00 | 100 | 1013.8 |
| 20260502192605 | 83 | 312 | 2.6 | 10.4 | 0.00 | 0.00 | 0.00 | 100 | 1013.8 |
| 20260502192105 | 84 | 272 | 7.0 | 13.0 | 0.00 | 0.00 | 0.00 | 100 | 1014.0 |
| 20260502191605 | 84 | 229 | 5.2 | 11.3 | 0.00 | 0.00 | 0.00 | 100 | 1013.8 |
| 20260502191105 | 84 | 267 | 9.6 | 13.0 | 0.00 | 0.00 | 0.00 | 100 | 1013.8 |
| 20260502190605 | 85 | 260 | 8.7 | 10.4 | 0.00 | 0.00 | 0.00 | 100 | 1013.8 |
| 20260502190105 | 85 | 289 | 6.1 | 11.3 | 0.00 | 0.00 | 0.00 | 100 | 1013.8 |
| 20260502185741 | 85 | 338 | 4.3 | 9.6 | 0.00 | 0.00 | 0.00 | 100 | 1013.8 |
| 20260502185605 | 85 | 338 | 4.3 | 9.6 | 0.00 | 0.00 | 0.00 | 100 | 1013.8 |
| 20260502185105 | 85 | 257 | 5.2 | 13.9 | 0.00 | 0.00 | 0.00 | 100 | 1013.9 |
| 20260502184605 | 85 | 262 | 5.2 | 11.3 | 0.00 | 0.00 | 0.00 | 100 | 1013.9 |
| 20260502184105 | 85 | 253 | 5.2 | 15.6 | 0.00 | 0.00 | 0.00 | 100 | 1014.0 |
| 20260502183605 | 86 | 288 | 9.6 | 16.5 | 0.00 | 0.00 | 0.00 | 100 | 1014.1 |
| 20260502183105 | 86 | 275 | 7.0 | 13.0 | 0.00 | 0.00 | 0.00 | 100 | 1013.9 |
| 20260502182605 | 86 | 225 | 11.3 | 19.1 | 0.00 | 0.00 | 0.00 | 100 | 1014.0 |
| 20260502182105 | 87 | 195 | 11.3 | 19.1 | 0.00 | 0.00 | 0.00 | 100 | 1014.0 |
| 20260502181605 | 87 | 239 | 16.5 | 19.1 | 0.00 | 0.00 | 0.00 | 100 | 1014.0 |
| 20260502181537 | 88 | 236 | 10.4 | 16.5 | 0.00 | 0.00 | 0.00 | 100 | 1014.2 |
| 20260502181105 | 88 | 236 | 10.4 | 16.5 | 0.00 | 0.00 | 0.00 | 100 | 1014.2 |
| 20260502181038 | 88 | 240 | 15.6 | 18.2 | 0.00 | 0.00 | 0.00 | 100 | 1014.3 |
| 20260502180605 | 87 | 261 | 7.0 | 18.2 | 0.00 | 0.00 | 0.00 | 100 | 1014.3 |
| 20260502180105 | 88 | 240 | 15.6 | 18.2 | 0.00 | 0.00 | 0.00 | 100 | 1014.3 |
| 20260502170105 | 87 | 251 | 7.8 | 21.7 | 0.00 | 0.00 | 0.00 | 100 | 1014.5 |
| 20260502164105 | 88 | 195 | 10.4 | 21.7 | 0.00 | 0.00 | 0.00 | 100 | 1014.5 |
| 20260502163605 | 90 | 215 | 9.6 | 23.5 | 0.00 | 0.00 | 0.00 | 100 | 1014.4 |
| 20260502163543 | 90 | 240 | 10.4 | 20.0 | 0.00 | 0.00 | 0.00 | 100 | 1014.4 |
| 20260502163105 | 90 | 240 | 10.4 | 20.0 | 0.00 | 0.00 | 0.00 | 100 | 1014.4 |
| 20260502162605 | 90 | 257 | 14.8 | 21.7 | 0.00 | 0.00 | 0.00 | 100 | 1014.4 |
| 20260502162105 | 91 | 212 | 6.1 | 20.9 | 0.00 | 0.00 | 0.00 | 100 | 1014.4 |
| 20260502161605 | 90 | 247 | 10.4 | 18.2 | 0.00 | 0.00 | 0.00 | 100 | 1014.3 |
| 20260502161105 | 90 | 255 | 16.5 | 19.1 | 0.00 | 0.00 | 0.00 | 100 | 1014.6 |
| 20260502160605 | 89 | 279 | 10.4 | 20.9 | 0.00 | 0.00 | 0.00 | 100 | 1014.6 |
| 20260502160147 | 90 | 226 | 9.6 | 19.1 | 0.00 | 0.00 | 0.00 | 100 | 1014.5 |
| 20260502160105 | 89 | 237 | 9.6 | 18.2 | 0.00 | 0.00 | 0.00 | 100 | 1014.5 |
| 20260502152106 | 88 | 271 | 12.2 | 18.2 | 0.00 | 0.00 | 0.00 | 100 | 1014.2 |
| 20260502151606 | 90 | 240 | 13.0 | 14.8 | 0.00 | 0.00 | 0.00 | 100 | 1014.2 |
| 20260502151408 | 86 | 219 | 8.7 | 20.0 | 0.00 | 0.00 | 0.00 | 100 | 1014.3 |
| 20260502151106 | 88 | 213 | 12.2 | 15.6 | 0.00 | 0.00 | 0.00 | 100 | 1014.2 |
| 20260502150606 | 86 | 219 | 8.7 | 20.0 | 0.00 | 0.00 | 0.00 | 100 | 1014.3 |
| 20260502150217 | 87 | 225 | 9.6 | 20.9 | 0.00 | 0.00 | 0.00 | 100 | 1013.9 |
| 20260502150106 | 86 | 187 | 8.7 | 18.2 | 0.00 | 0.00 | 0.00 | 100 | 1014.1 |
| 20260502140106 | 85 | 216 | 7.0 | 11.3 | 0.00 | 0.00 | 0.00 | 100 | 1013.7 |
| 20260502130606 | 78 | 205 | 3.5 | 5.2 | 0.00 | 0.00 | 0.00 | 100 | 1013.3 |
| 20260502130106 | 76 | 184 | 4.3 | 6.1 | 0.00 | 0.00 | 0.00 | 100 | 1013.3 |
| 20260502123606 | 73 | 165 | 2.6 | 4.3 | 0.00 | 0.00 | 0.00 | 100 | 1013.4 |
| 20260502123106 | 73 | 208 | 0.0 | 4.3 | 0.00 | 0.00 | 0.00 | 100 | 1013.3 |
| 20260502122606 | 73 | 164 | 0.0 | 0.0 | 0.00 | 0.00 | 0.00 | 100 | 1013.3 |
| 20260502122106 | 73 | 164 | 0.0 | 0.0 | 0.00 | 0.00 | 0.00 | 100 | 1013.3 |
| 20260502121606 | 72 | 164 | 0.0 | 0.0 | 0.00 | 0.00 | 0.00 | 100 | 1013.3 |
| 20260502121106 | 72 | 164 | 0.0 | 0.0 | 0.00 | 0.00 | 0.00 | 100 | 1013.3 |
| 20260502120606 | 71 | 164 | 0.0 | 0.0 | 0.00 | 0.00 | 0.00 | 100 | 1013.2 |
| 20260502120106 | 70 | 164 | 0.0 | 0.0 | 0.00 | 0.00 | 0.00 | 100 | 1013.1 |
| 20260502115606 | 69 | 164 | 0.0 | 0.0 | 0.00 | 0.00 | 0.00 | 100 | 1013.1 |
| 20260502115106 | 68 | 164 | 0.0 | 0.0 | 0.00 | 0.00 | 0.00 | 100 | 1013.1 |
| 20260502114606 | 68 | 164 | 0.0 | 1.7 | 0.00 | 0.00 | 0.00 | 100 | 1013.1 |
| 20260502114107 | 68 | 136 | 0.0 | 0.0 | 0.00 | 0.00 | 0.00 | 100 | 1013.2 |
| 20260502113607 | 68 | 136 | 0.0 | 0.0 | 0.00 | 0.00 | 0.00 | 100 | 1013.1 |
| 20260502113107 | 68 | 136 | 0.0 | 0.0 | 0.00 | 0.00 | 0.00 | 100 | 1013.1 |
| 20260502112607 | 67 | 136 | 0.0 | 0.0 | 0.00 | 0.00 | 0.00 | 100 | 1013.0 |
| 20260502112107 | 67 | 136 | 0.0 | 0.0 | 0.00 | 0.00 | 0.00 | 100 | 1013.0 |
| 20260502111607 | 66 | 136 | 0.0 | 0.0 | 0.00 | 0.00 | 0.00 | 100 | 1013.0 |
| 20260502111107 | 66 | 136 | 0.0 | 0.0 | 0.00 | 0.00 | 0.00 | 100 | 1012.9 |
| 20260502110607 | 66 | 136 | 0.0 | 2.6 | 0.00 | 0.00 | 0.00 | 100 | 1012.8 |
| 20260502110107 | 66 | 123 | 0.0 | 0.0 | 0.00 | 0.00 | 0.00 | 100 | 1012.7 |
| 20260502105607 | 66 | 123 | 0.0 | 0.0 | 0.00 | 0.00 | 0.00 | 100 | 1012.7 |
| 20260502105107 | 66 | 123 | 0.0 | 2.6 | 0.00 | 0.00 | 0.00 | 100 | 1012.8 |
| 20260502104607 | 66 | 161 | 0.0 | 4.3 | 0.00 | 0.00 | 0.00 | 100 | 1012.8 |
| 20260502104107 | 66 | 95 | 0.0 | 1.7 | 0.00 | 0.00 | 0.00 | 100 | 1012.8 |
| 20260502103607 | 66 | 223 | 0.0 | 2.6 | 0.00 | 0.00 | 0.00 | 100 | 1012.8 |
| 20260502103107 | 66 | 105 | 0.0 | 2.6 | 0.00 | 0.00 | 0.00 | 100 | 1012.7 |
| 20260502102607 | 66 | 153 | 0.0 | 6.1 | 0.00 | 0.00 | 0.00 | 100 | 1012.8 |
| 20260502102107 | 66 | 136 | 0.0 | 6.1 | 0.00 | 0.00 | 0.00 | 100 | 1012.9 |
| 20260502101607 | 66 | 66 | 0.0 | 6.1 | 0.00 | 0.00 | 0.00 | 100 | 1013.0 |
| 20260502101107 | 65 | 172 | 1.7 | 5.2 | 0.00 | 0.00 | 0.00 | 100 | 1013.0 |
| 20260502100607 | 65 | 151 | 0.0 | 2.6 | 0.00 | 0.00 | 0.00 | 100 | 1013.2 |
| 20260502100107 | 64 | 147 | 0.0 | 1.7 | 0.00 | 0.00 | 0.00 | 100 | 1013.2 |
| 20260502091107 | 62 | 232 | 0.0 | 0.0 | 0.00 | 0.00 | 0.00 | 100 | 1013.2 |
| 20260502091102 | 62 | 232 | 0.0 | 0.0 | 0.00 | 0.00 | 0.00 | 100 | 1013.4 |
| 20260502090607 | 62 | 232 | 0.0 | 0.0 | 0.00 | 0.00 | 0.00 | 100 | 1013.2 |
| 20260502090107 | 62 | 232 | 0.0 | 0.0 | 0.00 | 0.00 | 0.00 | 100 | 1013.4 |
| 20260502080107 | 63 | 232 | 0.0 | 0.0 | 0.00 | 0.00 | 0.00 | 100 | 1013.4 |
| 20260502071108 | 63 | 232 | 0.0 | 0.0 | 0.00 | 0.00 | 0.00 | 100 | 1013.8 |
| 20260502070608 | 63 | 232 | 0.0 | 0.0 | 0.00 | 0.00 | 0.00 | 100 | 1013.8 |
| 20260502070108 | 63 | 232 | 0.0 | 0.0 | 0.00 | 0.00 | 0.00 | 100 | 1013.8 |
| 20260502065608 | 63 | 232 | 0.0 | 0.0 | 0.00 | 0.00 | 0.00 | 100 | 1013.8 |
| 20260502065108 | 63 | 232 | 0.0 | 0.0 | 0.00 | 0.00 | 0.00 | 100 | 1013.7 |
| 20260502064608 | 63 | 232 | 0.0 | 0.0 | 0.00 | 0.00 | 0.00 | 100 | 1013.7 |
| 20260502064108 | 63 | 232 | 0.0 | 0.0 | 0.00 | 0.00 | 0.00 | 100 | 1013.8 |
| 20260502063608 | 63 | 232 | 0.0 | 0.0 | 0.00 | 0.00 | 0.00 | 100 | 1013.9 |
| 20260502063108 | 63 | 232 | 0.0 | 0.0 | 0.00 | 0.00 | 0.00 | 100 | 1013.8 |
| 20260502062608 | 63 | 232 | 0.0 | 0.0 | 0.00 | 0.00 | 0.00 | 100 | 1013.9 |
| 20260502062108 | 63 | 232 | 0.0 | 0.0 | 0.00 | 0.00 | 0.00 | 100 | 1014.1 |
| 20260502061608 | 63 | 232 | 0.0 | 0.0 | 0.00 | 0.00 | 0.00 | 100 | 1014.2 |
| 20260502061108 | 63 | 232 | 0.0 | 0.0 | 0.00 | 0.00 | 0.00 | 100 | 1014.2 |
| 20260502060608 | 63 | 232 | 0.0 | 0.0 | 0.00 | 0.00 | 0.00 | 100 | 1014.1 |
| 20260502060108 | 64 | 232 | 0.0 | 0.0 | 0.00 | 0.00 | 0.00 | 100 | 1014.1 |
| 20260502055608 | 64 | 232 | 0.0 | 0.0 | 0.00 | 0.00 | 0.00 | 100 | 1014.1 |
| 20260502055108 | 64 | 232 | 0.0 | 0.0 | 0.00 | 0.00 | 0.00 | 100 | 1014.1 |
| 20260502054608 | 64 | 232 | 0.0 | 0.0 | 0.00 | 0.00 | 0.00 | 100 | 1014.2 |
| 20260502054108 | 63 | 232 | 0.0 | 0.0 | 0.00 | 0.00 | 0.00 | 100 | 1014.3 |
| 20260502053608 | 64 | 232 | 0.0 | 0.0 | 0.00 | 0.00 | 0.00 | 100 | 1014.3 |
| 20260502053412 | 64 | 232 | 0.0 | 0.0 | 0.00 | 0.00 | 0.00 | 100 | 1014.3 |
| 20260502053108 | 64 | 232 | 0.0 | 0.0 | 0.00 | 0.00 | 0.00 | 100 | 1014.2 |
| 20260502052608 | 64 | 232 | 0.0 | 0.0 | 0.00 | 0.00 | 0.00 | 100 | 1014.3 |
| 20260502052108 | 64 | 232 | 0.0 | 0.0 | 0.00 | 0.00 | 0.00 | 100 | 1014.3 |
| 20260502051608 | 64 | 232 | 0.0 | 0.0 | 0.00 | 0.00 | 0.00 | 100 | 1014.4 |
| 20260502051108 | 64 | 232 | 0.0 | 0.0 | 0.00 | 0.00 | 0.00 | 100 | 1014.4 |
| 20260502050608 | 64 | 232 | 0.0 | 0.0 | 0.00 | 0.00 | 0.00 | 100 | 1014.5 |
| 20260502050108 | 64 | 232 | 0.0 | 0.0 | 0.00 | 0.00 | 0.00 | 100 | 1014.5 |
| 20260502045608 | 65 | 232 | 0.0 | 0.0 | 0.00 | 0.00 | 0.00 | 100 | 1014.6 |
| 20260502045108 | 65 | 232 | 0.0 | 0.0 | 0.00 | 0.00 | 0.00 | 100 | 1014.7 |
| 20260502044608 | 64 | 232 | 0.0 | 0.0 | 0.00 | 0.00 | 0.00 | 100 | 1014.7 |
| 20260502044108 | 64 | 232 | 0.0 | 0.0 | 0.00 | 0.00 | 0.00 | 100 | 1014.6 |
| 20260502043608 | 64 | 232 | 0.0 | 0.0 | 0.00 | 0.00 | 0.00 | 100 | 1014.6 |
| 20260502043108 | 65 | 232 | 0.0 | 0.0 | 0.00 | 0.00 | 0.00 | 100 | 1014.6 |
| 20260502042608 | 64 | 232 | 0.0 | 0.0 | 0.00 | 0.00 | 0.00 | 100 | 1014.6 |
| 20260502042108 | 64 | 232 | 0.0 | 0.0 | 0.00 | 0.00 | 0.00 | 100 | 1014.7 |
| 20260502041608 | 64 | 232 | 0.0 | 0.0 | 0.00 | 0.00 | 0.00 | 100 | 1014.7 |
| 20260502041108 | 64 | 232 | 0.0 | 0.0 | 0.00 | 0.00 | 0.00 | 100 | 1014.7 |
| 20260502040608 | 64 | 232 | 0.0 | 0.0 | 0.00 | 0.00 | 0.00 | 100 | 1014.6 |
| 20260502040108 | 64 | 232 | 0.0 | 0.0 | 0.00 | 0.00 | 0.00 | 100 | 1014.6 |
| 20260502035608 | 65 | 232 | 0.0 | 0.0 | 0.00 | 0.00 | 0.00 | 100 | 1014.6 |
| 20260502035109 | 65 | 232 | 0.0 | 0.0 | 0.00 | 0.00 | 0.00 | 100 | 1014.7 |
| 20260502034609 | 65 | 232 | 0.0 | 0.0 | 0.00 | 0.00 | 0.00 | 100 | 1014.7 |
| 20260502034109 | 65 | 232 | 0.0 | 0.0 | 0.00 | 0.00 | 0.00 | 100 | 1014.8 |
| 20260502033609 | 65 | 232 | 0.0 | 0.0 | 0.00 | 0.00 | 0.00 | 100 | 1014.8 |
| 20260502033109 | 65 | 232 | 0.0 | 0.0 | 0.00 | 0.00 | 0.00 | 100 | 1014.8 |
| 20260502032609 | 65 | 232 | 0.0 | 0.0 | 0.00 | 0.00 | 0.00 | 100 | 1014.7 |
| 20260502032109 | 65 | 232 | 0.0 | 0.0 | 0.00 | 0.00 | 0.00 | 100 | 1014.8 |
| 20260502031609 | 65 | 232 | 0.0 | 0.0 | 0.00 | 0.00 | 0.00 | 100 | 1014.8 |
| 20260502031109 | 66 | 232 | 0.0 | 0.0 | 0.00 | 0.00 | 0.00 | 100 | 1014.9 |
| 20260502030609 | 66 | 232 | 0.0 | 0.0 | 0.00 | 0.00 | 0.00 | 100 | 1015.0 |
| 20260502030109 | 66 | 232 | 0.0 | 0.0 | 0.00 | 0.00 | 0.00 | 100 | 1014.9 |
| 20260502025609 | 66 | 232 | 0.0 | 0.0 | 0.00 | 0.00 | 0.00 | 100 | 1014.9 |
| 20260502025109 | 66 | 232 | 0.0 | 0.0 | 0.00 | 0.00 | 0.00 | 100 | 1015.0 |
| 20260502024609 | 66 | 232 | 0.0 | 0.0 | 0.00 | 0.00 | 0.00 | 100 | 1015.0 |
| 20260502024109 | 66 | 232 | 0.0 | 0.0 | 0.00 | 0.00 | 0.00 | 100 | 1015.0 |
| 20260502023609 | 67 | 232 | 0.0 | 0.0 | 0.00 | 0.00 | 0.00 | 100 | 1014.9 |
| 20260502023109 | 66 | 232 | 0.0 | 0.0 | 0.00 | 0.00 | 0.00 | 100 | 1014.9 |
| 20260502022609 | 67 | 232 | 0.0 | 0.0 | 0.00 | 0.00 | 0.00 | 100 | 1014.9 |
| 20260502022109 | 67 | 232 | 0.0 | 0.0 | 0.00 | 0.00 | 0.00 | 100 | 1014.9 |
| 20260502021609 | 67 | 232 | 0.0 | 0.0 | 0.00 | 0.00 | 0.00 | 100 | 1015.0 |
| 20260502021109 | 67 | 232 | 0.0 | 0.0 | 0.00 | 0.00 | 0.00 | 100 | 1015.1 |
| 20260502020609 | 67 | 232 | 0.0 | 0.0 | 0.00 | 0.00 | 0.00 | 100 | 1014.9 |
| 20260502020109 | 68 | 232 | 0.0 | 0.0 | 0.00 | 0.00 | 0.00 | 100 | 1015.0 |
| 20260502015609 | 68 | 232 | 0.0 | 0.0 | 0.00 | 0.00 | 0.00 | 100 | 1014.9 |
| 20260502015109 | 68 | 232 | 0.0 | 0.0 | 0.00 | 0.00 | 0.00 | 100 | 1014.9 |
| 20260502014609 | 68 | 232 | 0.0 | 0.0 | 0.00 | 0.00 | 0.00 | 100 | 1014.8 |
| 20260502014109 | 69 | 232 | 0.0 | 0.0 | 0.00 | 0.00 | 0.00 | 100 | 1014.8 |
| 20260502013609 | 69 | 232 | 0.0 | 0.0 | 0.00 | 0.00 | 0.00 | 100 | 1014.6 |
| 20260502013109 | 69 | 232 | 0.0 | 0.0 | 0.00 | 0.00 | 0.00 | 100 | 1014.7 |
| 20260502012609 | 69 | 232 | 0.0 | 0.0 | 0.00 | 0.00 | 0.00 | 100 | 1014.6 |
| 20260502012109 | 70 | 232 | 0.0 | 0.0 | 0.00 | 0.00 | 0.00 | 100 | 1014.6 |
| 20260502011609 | 70 | 232 | 0.0 | 0.0 | 0.00 | 0.00 | 0.00 | 100 | 1014.5 |
| 20260502011109 | 70 | 232 | 0.0 | 0.0 | 0.00 | 0.00 | 0.00 | 100 | 1014.4 |
| 20260502010609 | 71 | 232 | 0.0 | 0.0 | 0.00 | 0.00 | 0.00 | 100 | 1014.4 |
| 20260502010109 | 72 | 232 | 0.0 | 0.0 | 0.00 | 0.00 | 0.00 | 100 | 1014.3 |
| 20260502005609 | 72 | 232 | 0.0 | 0.0 | 0.00 | 0.00 | 0.00 | 100 | 1014.2 |
| 20260502005110 | 73 | 232 | 0.0 | 0.0 | 0.00 | 0.00 | 0.00 | 100 | 1014.2 |
| 20260502004609 | 73 | 232 | 0.0 | 0.0 | 0.00 | 0.00 | 0.00 | 100 | 1014.2 |
| 20260502004109 | 74 | 232 | 0.0 | 1.7 | 0.00 | 0.00 | 0.00 | 100 | 1014.1 |
| 20260502003609 | 74 | 260 | 0.0 | 0.0 | 0.00 | 0.00 | 0.00 | 100 | 1014.1 |
| 20260502003109 | 75 | 260 | 0.0 | 0.0 | 0.00 | 0.00 | 0.00 | 100 | 1013.9 |
| 20260502002609 | 75 | 260 | 0.0 | 2.6 | 0.00 | 0.00 | 0.00 | 100 | 1013.9 |
| 20260502002109 | 76 | 275 | 0.0 | 3.5 | 0.00 | 0.00 | 0.00 | 100 | 1013.8 |
| 20260502001731 | 77 | 241 | 0.0 | 5.2 | 0.00 | 0.00 | 0.00 | 100 | 1013.6 |
| 20260502001609 | 76 | 244 | 0.0 | 3.5 | 0.00 | 0.00 | 0.00 | 100 | 1013.8 |
| 20260502001109 | 76 | 247 | 2.6 | 4.3 | 0.00 | 0.00 | 0.00 | 100 | 1013.8 |
| 20260502000609 | 77 | 251 | 2.6 | 3.5 | 0.00 | 0.00 | 0.00 | 100 | 1013.7 |
| 20260502000109 | 77 | 241 | 0.0 | 5.2 | 0.00 | 0.00 | 0.00 | 100 | 1013.6 |
| 20260501235609 | 78 | 248 | 1.7 | 4.3 | 0.00 | 0.00 | 0.00 | 100 | 1013.6 |
| 20260501235110 | 78 | 229 | 1.7 | 4.3 | 0.00 | 0.00 | 0.00 | 100 | 1013.5 |
| 20260501234610 | 79 | 232 | 2.6 | 5.2 | 0.00 | 0.00 | 0.00 | 100 | 1013.5 |
| 20260501234110 | 79 | 241 | 1.7 | 4.3 | 0.00 | 0.00 | 0.00 | 100 | 1013.4 |
| 20260501233610 | 79 | 232 | 2.6 | 7.0 | 0.00 | 0.00 | 0.00 | 100 | 1013.3 |
| 20260501233110 | 80 | 240 | 4.3 | 5.2 | 0.00 | 0.00 | 0.00 | 100 | 1013.3 |
| 20260501232610 | 80 | 250 | 2.6 | 6.1 | 0.00 | 0.00 | 0.00 | 100 | 1013.2 |
| 20260501232110 | 80 | 257 | 2.6 | 6.1 | 0.00 | 0.00 | 0.00 | 100 | 1013.2 |